• In Russia
  • List of Countries
  • For 7 days
  • Water Temperature
  • Satellite Maps
  • Weather Map
  • Weather Widgets
  • user-avatar
    Login

    Hourly Weather Ganja

    Today, 17 February, Saturday

    Time Temperature Precipitation Wind Pressure Humidity
    00:00 +6°C° 0 mm 1 mps 732 mmHg 94%
    01:00 +6°C° 0 mm 1 mps 732 mmHg 93%
    02:00 +6°C° 0 mm 1 mps 731 mmHg 93%
    03:00 +5°C° 0 mm 0 mps 731 mmHg 92%
    04:00 +6°C° 0 mm 1 mps 730 mmHg 91%
    05:00 +6°C° 0 mm 1 mps 730 mmHg 89%
    06:00 +6°C° 0 mm 1 mps 730 mmHg 88%
    07:00 +6°C° 0 mm 1 mps 730 mmHg 85%
    08:00 +7°C° 0 mm 1 mps 729 mmHg 81%
    09:00 +7°C° 0 mm 1 mps 729 mmHg 82%
    10:00 +8°C° 0 mm 1 mps 728 mmHg 79%
    11:00 +9°C° 0 mm 1 mps 728 mmHg 76%
    12:00 +8°C° 0 mm 2 mps 727 mmHg 72%
    13:00 +9°C° 0 mm 2 mps 727 mmHg 71%
    14:00 +9°C° 0 mm 2 mps 726 mmHg 69%
    15:00 +9°C° 0 mm 2 mps 726 mmHg 70%
    16:00 +9°C° 0 mm 2 mps 726 mmHg 74%
    17:00 +8°C° 0 mm 2 mps 726 mmHg 78%
    18:00 +7°C° 0 mm 2 mps 726 mmHg 82%
    19:00 +7°C° 0 mm 2 mps 726 mmHg 85%
    20:00 +7°C° 0 mm 2 mps 726 mmHg 87%
    21:00 +6°C° 0 mm 2 mps 726 mmHg 90%
    22:00 +6°C° 0 mm 2 mps 726 mmHg 92%
    23:00 +7°C° 0 mm 1 mps 725 mmHg 93%

    Tomorrow, 18 February, Sunday

    Time Temperature Precipitation Wind Pressure Humidity
    00:00 +7°C° 0 mm 1 mps 725 mmHg 94%
    01:00 +7°C° 0 mm 1 mps 725 mmHg 95%
    02:00 +6°C° 0 mm 1 mps 725 mmHg 95%
    03:00 +6°C° 0 mm 1 mps 724 mmHg 95%
    04:00 +6°C° 0.1 mm 1 mps 724 mmHg 95%
    05:00 +6°C° 0.1 mm 1 mps 724 mmHg 95%
    06:00 +6°C° 0.1 mm 1 mps 724 mmHg 95%
    07:00 +6°C° 0.2 mm 1 mps 723 mmHg 94%
    08:00 +6°C° 0.2 mm 1 mps 723 mmHg 92%
    09:00 +6°C° 0.2 mm 1 mps 723 mmHg 91%
    10:00 +6°C° 0.6 mm 2 mps 723 mmHg 88%
    11:00 +6°C° 0.6 mm 2 mps 723 mmHg 84%
    12:00 +5°C° 0.6 mm 3 mps 722 mmHg 81%
    13:00 +6°C° 1 mm 2 mps 722 mmHg 82%
    14:00 +6°C° 1 mm 2 mps 721 mmHg 83%
    15:00 +6°C° 1 mm 2 mps 721 mmHg 84%
    16:00 +6°C° 1.1 mm 2 mps 721 mmHg 85%
    17:00 +7°C° 1.1 mm 1 mps 722 mmHg 87%
    18:00 +7°C° 1.1 mm 1 mps 722 mmHg 88%
    19:00 +7°C° 1 mm 1 mps 722 mmHg 90%
    20:00 +6°C° 1 mm 1 mps 723 mmHg 91%
    21:00 +6°C° 1 mm 1 mps 723 mmHg 92%
    22:00 +6°C° 0.7 mm 1 mps 723 mmHg 92%
    23:00 +6°C° 0.7 mm 1 mps 723 mmHg 92%

    Day after tomorrow, 19 February, Monday

    Time Temperature Precipitation Wind Pressure Humidity
    00:00 +6°C° 0.7 mm 1 mps 723 mmHg 92%
    01:00 +6°C° 0.7 mm 1 mps 723 mmHg 91%
    02:00 +6°C° 0.7 mm 1 mps 723 mmHg 91%
    03:00 +6°C° 0.7 mm 1 mps 724 mmHg 91%
    04:00 +6°C° 0.5 mm 1 mps 724 mmHg 91%
    05:00 +6°C° 0.5 mm 1 mps 724 mmHg 90%
    06:00 +6°C° 0.5 mm 1 mps 724 mmHg 90%
    07:00 +6°C° 0.1 mm 1 mps 724 mmHg 88%
    08:00 +7°C° 0.1 mm 1 mps 724 mmHg 87%
    09:00 +7°C° 0.1 mm 1 mps 725 mmHg 85%
    10:00 +8°C° 0.1 mm 1 mps 725 mmHg 82%
    11:00 +7°C° 0.1 mm 2 mps 724 mmHg 80%
    12:00 +8°C° 0.1 mm 2 mps 724 mmHg 78%
    13:00 +8°C° 0 mm 2 mps 724 mmHg 76%
    14:00 +8°C° 0 mm 2 mps 724 mmHg 75%
    15:00 +9°C° 0 mm 2 mps 724 mmHg 73%
    16:00 +8°C° 0 mm 2 mps 724 mmHg 75%
    17:00 +8°C° 0 mm 2 mps 724 mmHg 77%
    18:00 +7°C° 0 mm 2 mps 725 mmHg 79%
    19:00 +5°C° 0 mm 3 mps 725 mmHg 80%
    20:00 +5°C° 0 mm 3 mps 725 mmHg 82%
    21:00 +4°C° 0 mm 3 mps 726 mmHg 83%
    22:00 +4°C° 0 mm 3 mps 726 mmHg 83%
    23:00 +5°C° 0 mm 2 mps 726 mmHg 83%

    20 February, Tuesday

    Time Temperature Precipitation Wind Pressure Humidity
    00:00 +5°C° 0 mm 2 mps 726 mmHg 83%
    01:00 +4°C° 0 mm 2 mps 726 mmHg 82%
    02:00 +4°C° 0 mm 2 mps 726 mmHg 82%
    03:00 +4°C° 0 mm 2 mps 726 mmHg 81%
    04:00 +4°C° 0 mm 2 mps 726 mmHg 81%
    05:00 +5°C° 0 mm 1 mps 726 mmHg 81%
    06:00 +5°C° 0 mm 1 mps 726 mmHg 81%
    07:00 +5°C° 0 mm 1 mps 726 mmHg 81%
    08:00 +6°C° 0 mm 1 mps 726 mmHg 81%
    09:00 +7°C° 0 mm 1 mps 726 mmHg 81%
    10:00 +6°C° 0 mm 2 mps 726 mmHg 82%
    11:00 +7°C° 0 mm 2 mps 726 mmHg 82%
    12:00 +7°C° 0 mm 2 mps 725 mmHg 82%
    13:00 +8°C° 0 mm 2 mps 725 mmHg 80%
    14:00 +8°C° 0 mm 2 mps 725 mmHg 79%
    15:00 +8°C° 0 mm 2 mps 724 mmHg 78%
    16:00 +9°C° 0 mm 1 mps 724 mmHg 79%
    17:00 +8°C° 0 mm 1 mps 725 mmHg 81%
    18:00 +8°C° 0 mm 1 mps 725 mmHg 82%
    19:00 +7°C° 0 mm 1 mps 725 mmHg 84%
    20:00 +7°C° 0 mm 1 mps 725 mmHg 85%
    21:00 +6°C° 0 mm 2 mps 726 mmHg 87%
    22:00 +6°C° 0 mm 1 mps 726 mmHg 88%
    23:00 +6°C° 0 mm 1 mps 726 mmHg 89%

    21 February, Wednesday

    Time Temperature Precipitation Wind Pressure Humidity
    00:00 +6°C° 0 mm 1 mps 726 mmHg 90%
    01:00 +6°C° 0 mm 1 mps 726 mmHg 91%
    02:00 +6°C° 0 mm 1 mps 726 mmHg 91%
    03:00 +6°C° 0 mm 1 mps 726 mmHg 91%
    04:00 +5°C° 0 mm 1 mps 726 mmHg 90%
    05:00 +5°C° 0 mm 1 mps 726 mmHg 90%
    06:00 +5°C° 0 mm 1 mps 726 mmHg 89%
    07:00 +6°C° 0 mm 1 mps 726 mmHg 87%
    08:00 +6°C° 0 mm 1 mps 726 mmHg 85%
    09:00 +7°C° 0 mm 1 mps 726 mmHg 83%
    10:00 +8°C° 0 mm 1 mps 726 mmHg 81%
    11:00 +8°C° 0 mm 1 mps 726 mmHg 78%
    12:00 +9°C° 0 mm 1 mps 726 mmHg 76%
    13:00 +8°C° 0 mm 2 mps 725 mmHg 74%
    14:00 +9°C° 0 mm 2 mps 725 mmHg 72%
    15:00 +9°C° 0 mm 2 mps 725 mmHg 70%
    16:00 +8°C° 0 mm 2 mps 725 mmHg 72%
    17:00 +8°C° 0 mm 2 mps 725 mmHg 74%
    18:00 +7°C° 0 mm 2 mps 726 mmHg 76%
    19:00 +7°C° 0 mm 2 mps 726 mmHg 78%
    20:00 +7°C° 0 mm 2 mps 726 mmHg 80%
    21:00 +7°C° 0 mm 2 mps 727 mmHg 82%
    22:00 +7°C° 0 mm 1 mps 727 mmHg 85%
    23:00 +7°C° 0 mm 1 mps 727 mmHg 87%

    22 February, Thursday

    Time Temperature Precipitation Wind Pressure Humidity
    00:00 +7°C° 0 mm 1 mps 727 mmHg 90%
    01:00 +6°C° 0 mm 1 mps 727 mmHg 91%
    02:00 +6°C° 0 mm 1 mps 726 mmHg 93%
    03:00 +5°C° 0 mm 0 mps 726 mmHg 94%
    04:00 +5°C° 0 mm 0 mps 726 mmHg 93%
    05:00 +5°C° 0 mm 0 mps 726 mmHg 93%
    06:00 +5°C° 0 mm 0 mps 726 mmHg 92%
    07:00 +5°C° 0 mm 0 mps 726 mmHg 90%
    08:00 +7°C° 0 mm 1 mps 726 mmHg 87%
    09:00 +7°C° 0 mm 1 mps 726 mmHg 84%
    10:00 +8°C° 0 mm 1 mps 726 mmHg 80%
    11:00 +9°C° 0 mm 1 mps 725 mmHg 75%
    12:00 +10°C° 0 mm 1 mps 725 mmHg 71%
    13:00 +10°C° 0 mm 1 mps 724 mmHg 69%
    14:00 +11°C° 0 mm 1 mps 724 mmHg 67%
    15:00 +11°C° 0 mm 1 mps 723 mmHg 65%
    16:00 +11°C° 0 mm 1 mps 724 mmHg 68%
    17:00 +10°C° 0 mm 1 mps 724 mmHg 70%
    18:00 +9°C° 0 mm 1 mps 724 mmHg 73%
    19:00 +9°C° 0 mm 1 mps 724 mmHg 74%
    20:00 +9°C° 0 mm 1 mps 724 mmHg 75%
    21:00 +8°C° 0 mm 1 mps 725 mmHg 76%
    22:00 +8°C° 0 mm 1 mps 725 mmHg 76%
    23:00 +8°C° 0 mm 1 mps 724 mmHg 77%
    Show more